Starlink 31057

operational
NORAD ID: 58545 Int'l Des: 2023-192 Owner: SPXS Country: US Constellation: starlink
LEOCIRCULAR

About Starlink 31057

Description loading...

Live Position

Loading 3D Globe...

Upcoming Passes

Altitude History

Altitude vs Time

uPlot chart will show altitude changes over time

Two-Line Element Set

1 58545U 23192Q 25349.57212192 .00002712 00000-0 10369-3 0 9990
2 58545 53.1602 93.6674 0001217 77.0104 283.1033 15.30187643113105
Epoch: Dec 15, 2025 • Age: 39 hours

Current Status

Altitude 484.8 km
Velocity 7.62 km/s
Sub-Earth Point -29.63°S, 140.71°E
Launch Date Dec 8, 2023
Age 2 years
Type internet

Technical Details

Classification Payload
Mass 730.00 kg
Dry Mass 700.00 kg
Total Mass 730.00 kg
Length 0.30 m
Diameter 4.10 m
Span 29.00 m
Shape Box + pan
Manufacturer SPXS
Bus Type Starlink V2M
Phase Status In Orbit
Owner/State SPXS/US

Large Constellations

Loading constellations...